TimeMDT,TemperatureF,Dew PointF,Humidity,Sea Level PressureIn,VisibilityMPH,Wind Direction,Wind SpeedMPH,Gust SpeedMPH,PrecipitationIn,Events,Conditions,WindDirDegrees,DateUTC
12:10 AM,24.8,19.4,80,30.09,10.0,North,8.1,-,N/A,,Overcast,10,2013-03-16 06:10:00
12:19 AM,23.0,17.6,80,30.08,10.0,NNE,11.5,-,N/A,,Overcast,20,2013-03-16 06:19:00
12:53 AM,23.0,18.0,81,30.14,10.0,NE,10.4,-,N/A,,Overcast,50,2013-03-16 06:53:00
1:53 AM,21.9,18.0,85,30.13,10.0,NE,8.1,-,N/A,,Overcast,40,2013-03-16 07:53:00
2:53 AM,23.0,19.0,85,30.11,9.0,NE,6.9,-,N/A,,Overcast,50,2013-03-16 08:53:00
3:53 AM,21.9,19.0,89,30.12,3.0,East,4.6,-,N/A,,Overcast,80,2013-03-16 09:53:00
4:53 AM,23.0,19.0,85,30.10,7.0,NE,4.6,-,N/A,,Overcast,50,2013-03-16 10:53:00
5:53 AM,23.0,19.9,88,30.09,6.0,East,4.6,-,N/A,,Overcast,90,2013-03-16 11:53:00
6:19 AM,23.0,19.4,86,29.97,2.0,ESE,5.8,-,N/A,,Overcast,110,2013-03-16 12:19:00
6:34 AM,23.0,19.4,86,29.96,0.8,East,5.8,-,N/A,,Overcast,100,2013-03-16 12:34:00
6:53 AM,23.0,19.9,88,30.07,2.0,ESE,5.8,-,N/A,,Overcast,110,2013-03-16 12:53:00
7:20 AM,23.0,19.4,86,29.94,4.0,East,4.6,-,N/A,,Overcast,90,2013-03-16 13:20:00
7:53 AM,23.0,19.9,88,30.06,4.0,East,4.6,-,N/A,,Overcast,80,2013-03-16 13:53:00
8:53 AM,24.1,19.9,84,30.05,5.0,ENE,3.5,-,N/A,,Overcast,60,2013-03-16 14:53:00
9:02 AM,24.8,21.2,86,29.92,6.0,ENE,4.6,-,N/A,,Overcast,70,2013-03-16 15:02:00
9:53 AM,26.1,19.9,78,30.06,6.0,ENE,3.5,-,N/A,,Haze,60,2013-03-16 15:53:00
10:45 AM,28.4,21.2,74,29.91,9.0,East,6.9,-,N/A,,Scattered Clouds,80,2013-03-16 16:45:00
10:53 AM,28.9,21.9,75,30.06,8.0,East,5.8,-,N/A,,Partly Cloudy,80,2013-03-16 16:53:00
11:53 AM,34.0,24.1,67,30.04,10.0,ENE,4.6,-,N/A,,Scattered Clouds,60,2013-03-16 17:53:00
12:53 PM,39.9,25.0,55,29.99,10.0,East,5.8,-,N/A,,Mostly Cloudy,80,2013-03-16 18:53:00
1:53 PM,45.0,27.0,49,29.94,10.0,Calm,Calm,-,N/A,,Overcast,0,2013-03-16 19:53:00
2:53 PM,46.9,28.0,48,29.89,10.0,East,4.6,-,N/A,,Overcast,100,2013-03-16 20:53:00
3:53 PM,50.0,28.0,43,29.84,10.0,Calm,Calm,-,N/A,,Mostly Cloudy,0,2013-03-16 21:53:00
4:22 PM,55.4,23.0,29,29.74,10.0,WSW,16.1,24.2,N/A,,Clear,250,2013-03-16 22:22:00
4:53 PM,52.0,21.9,31,29.80,10.0,WSW,18.4,26.5,N/A,,Partly Cloudy,240,2013-03-16 22:53:00
5:53 PM,52.0,23.0,32,29.78,10.0,WSW,18.4,-,N/A,,Mostly Cloudy,250,2013-03-16 23:53:00
6:53 PM,48.9,23.0,36,29.77,10.0,WSW,10.4,-,N/A,,Scattered Clouds,250,2013-03-17 00:53:00
7:53 PM,44.1,24.1,45,29.76,10.0,SW,11.5,-,N/A,,Clear,230,2013-03-17 01:53:00
8:53 PM,41.0,24.1,51,29.75,10.0,WSW,11.5,-,N/A,,Clear,240,2013-03-17 02:53:00
9:53 PM,39.9,24.1,53,29.73,10.0,SSW,9.2,-,N/A,,Clear,200,2013-03-17 03:53:00
10:53 PM,41.0,25.0,53,29.69,10.0,SSW,6.9,-,N/A,,Mostly Cloudy,200,2013-03-17 04:53:00
11:53 PM,42.1,25.0,51,29.64,10.0,SW,10.4,-,N/A,,Mostly Cloudy,220,2013-03-17 05:53:00